sat.trackr.live / text

‹ back to catalog

STARLINK-36601

NORAD 67618 · 2026-020B

PAYLOAD ACTIVE UNKNOWN

§ Identity

Operator
Country
US
Launch date
2026-01-30
Launch site
AFETR
Launch vehicle
Mass (kg)
RCS (m²)

Purposes: comms

External: N2YO · Heavens-Above · Gunter

§ Orbital elements

Epoch: 2026-05-25T04:49:02.779968Z

Period
94.27 min
Inclination
43.0000°
Eccentricity
0.0001413
Mean motion
15.27590251 rev/d
Perigee alt
482.0 km
Apogee alt
484.0 km
Semi-major
6,861.2 km
B*
6.2143e-4
RAAN
67.7920°
Arg perigee
265.3859°
Mean anomaly
94.6831°
Rev number
1,781

§ Raw data

STARLINK-366011 67618U 26020B   26145.20072662  .00016883  00000+0  62143-3 0  99952 67618  43.0000  67.7920 0001413 265.3859  94.6831 15.27590251 17810

JSON: /api/v1/satellites/67618 · /tle

For live sub-satellite position, see the globe view (requires WebGL).

§ Visibility from observer

Set your observer location to see the next 7 days of passes ≥ 10°. The values pass through the URL so the page stays shareable.

No JS? Fill the form by hand. The geolocation button needs JavaScript.